Location: ?????
(31.8092°N, 35.2590°E)
Time: 14:22:25
(UTC+00:00)

N. Korean satellite - Visible Passes

Search period start: 23 September 2021 00:00
Search period end: 03 October 2021 00:00
Orbit: 448 x 498 km, 97.3° (Epoch: 23 September)

Date Brightness Start Highest point End Pass type
(mag) Time Alt. Az. Time Alt. Az. Time Alt. Az.
23 Sep 6.5 02:57:25 10° N 03:00:57 73° WNW 03:04:31 10° SSW visible
24 Sep 8.0 02:29:49 10° NNE 02:33:12 40° E 02:36:36 10° S visible
25 Sep 9.7 02:02:59 10° NE 02:05:21 17° E 02:07:44 10° SE visible
27 Sep 7.2 02:39:32 10° NNE 02:43:04 59° E 02:46:38 10° S visible
28 Sep 9.2 02:12:19 10° NE 02:15:13 23° E 02:18:08 10° SSE visible
30 Sep 6.6 02:49:13 10° NNE 02:52:50 85° E 02:56:29 10° S visible
01 Oct 8.6 02:21:44 10° NNE 02:25:00 31° E 02:28:16 10° SSE visible
02 Oct 9.9 01:55:16 10° ENE 01:57:03 13° E 01:58:51 10° SE visible
